Regional Weather Roundup
Issued by NWS Newport/Morehead, NC

Home | Current Version | Previous Version | Text Only | Print | Product List | Glossary On
Versions: 1 2 3 4 5 6 7 8 9 10 11 12 13 14 15 16 17 18 19 20 21 22 23 24 25 26 27 28 29 30 31 32 33 34 35 36 37 38 39 40 41 42 43 44 45 46 47 48 49 50
651
ASUS42 KMHX 251325
RWRMHX
WEATHER ROUNDUP FOR EASTERN NORTH CAROLINA
NATIONAL WEATHER SERVICE NEWPORT/MOREHEAD CITY NC
900 AM EDT WED MAY 25 2016

NOTE: "FAIR" INDICATES FEW OR NO CLOUDS BELOW 12,000 FEET
WITH NO SIGNIFICANT WEATHER AND/OR OBSTRUCTIONS TO VISIBILITY

NCZ015>017-031-032-045>047-102-103-251400-
NORTH COAST

CITY           SKY/WX    TMP DP  RH WIND       PRES   REMARKS
EDENTON        SUNNY    N/A N/A N/A W5        30.22S
ELIZABETH CITY SUNNY     74  59  59 W8G17     30.20R
KITTY HAWK     SUNNY     74  60  60 W8G16     30.19F
MANTEO         SUNNY     73  61  66 NW6       30.21R

$$

NCZ045>047-081-094-103-104-251400-
CENTRAL COAST

CITY           SKY/WX    TMP DP  RH WIND       PRES   REMARKS
FRISCO         SUNNY     73  63  70 W9        30.22R

$$

NCZ095-097-098-100-101-251400-
SOUTHERN COAST

CITY           SKY/WX    TMP DP  RH WIND       PRES   REMARKS
BEAUFORT       SUNNY     73  62  68 NW7       30.24R
CEDAR ISLAND   NOT AVBL
JACKSONVILLE   SUNNY     73  62  68 W7        30.24R
PINEY ISLAND   SUNNY    N/A N/A N/A W12       30.23R
WILMINGTON     SUNNY     74  63  68 W8        30.25R


$$

NCZ011>013-027>030-043-044-078>080-089-090>093-098-251400-
COASTAL PLAIN

CITY           SKY/WX    TMP DP  RH WIND       PRES   REMARKS
AHOSKIE        SUNNY     72  60  65 CALM      30.21S
CLINTON        SUNNY     73  66  78 W6        30.24S
ELIZABETHTOWN  SUNNY     73  64  73 SW5       30.24R
GOLDSBORO      SUNNY     72  69  89 SW8       30.22R
GREENVILLE     SUNNY     73  64  73 CALM      30.23S
HAVELOCK       SUNNY     73  63  70 W5        30.24R
KENANSVILLE    SUNNY     73  63  71 CALM      30.25S
KINSTON        SUNNY     72  64  78 SW8       30.24R
NEW BERN       SUNNY     73  62  68 W6        30.24R
RICHLANDS      SUNNY     74  65  73 W6        30.25R
ROCKY MOUNT    SUNNY     71  62  73 SW6       30.22S
WASHINGTON     SUNNY     73  63  71 W6        30.23R
WHITEVILLE     SUNNY     75  65  73 SW7       30.24S

$$

AMZ130-135-150-152-154-156-158-170-250-252-270-ANZ085-086-088-633-658-670-251400-
MARINE OBSERVATIONS

STATION/POSITION TIME  TEMP    WIND        PRES    WAVE   SWELL
                       AIR SEA DIR/SP/G            HT/PER HT/PER
                 (UTC) (F)     (DEG/KT/KT) (MB)    (FT/S) (FT/S)
CHESAPEAKE LIGHT 1300   70     270/ 12/ 12 1022.5
64 E VA BEACH    1250   61 56  260/  6/  8 1021.7    3/ 5   2/ 5
DUCK             1300   71 61  240/  8/ 11 1022.0
2 E DUCK         1311      62                N/A     2/ 9
OREGON INLET     1300   71 68  250/  6/  8 1022.8
13E OREGON INLT  1300      64                N/A     3/ 5   3/ 5
HATTERAS CG      1200   69 68  270/  9/ 12 1022.6
DIAMOND BUOY     1250   67 67  260/  6/  8 1023.6    3/ 5   2/ 5
CAPE LOOKOUT     1300   72     290/  7/  8 1023.7
BEAUFORT LAB     1300   73 68  300/  2/  5 1023.2
30 SE NEW RVR IN 1225      73                N/A     2/ 9
27 SE WRIGHTSVLE 1308   73 72  280/  4/  8 1023.9
5 SE WRIGHTSVLE  1208   71 71  280/  6/  8 1024.5
225 S CAPE HAT   1250   74 78   50/  6/  8 1024.2    4/ 8   3/ 8
41 SE CHARLESTON 1250   76 76  250/  2/  2 1024.2    2/ 8   2/ 8

$$




USA.gov is the U.S. government's official web portal to all federal, state and local government web resources and services.